Вернуться в каталог

STARLINK-3391

АктивенСвязьVLEO
NORAD 51117·PAYLOAD·🇺🇸 United States

Запущен Jan 19, 2022 с Cape Canaveral Space Force Station

Loading…

Ближайшие Пролёты (ближайшие 24 часа)

TLE

СвежийSource: CelesTrak SupGP

Эпоха: Sep 14, 2026, 20:26 UTC

1 51117C 22005P   26257.85187500 -.00029001  00000+0 -82994-3 0  2575
2 51117  53.1593 152.7643 0001274  91.6130  60.6120 15.35405837    12

Отслеживайте STARLINK-3391 в реальном времени с AllMySat

Download on the App Store